Location: Arpaise
(41.0333°N, 14.7333°E)
Time: 01:20:41
(UTC+00:00)

Cosmos 1515 Rocket - Pass Details

Date: 05 July 2020
Orbit: 607 x 629 km, 82.5° (Epoch: 11 August)

Event Time Altitude Azimuth Distance (km) Brightness Sun altitude
Rises 22:37:13 0° 358° (N) 2,877 8.3 -26.0°
Reaches altitude 10° 22:39:31 10° 5° (N) 1,970 7.1 -26.0°
Enters shadow 22:43:16 44° 59° (ENE) 848 4.3 -26.1°
